Weather History for Cavalier, ND

Change the Weather History Date:

Tuesday, January 29, 2013

  Actual Average (KGAF) Record (KGAF)
Temperature  
Mean Temperature 16 °F -  
Max Temperature 23 °F 18 °F 42 °F (1992)
Min Temperature 8 °F -2 °F -37 °F (1951)
Degree Days  
Heating Degree Days 50    
Moisture  
Dew Point 14 °F    
Average Humidity 87    
Maximum Humidity 100    
Minimum Humidity 73    
Precipitation  
Precipitation 0.03 in - - ()
Sea Level Pressure  
Sea Level Pressure 29.84 in    
Wind  
Wind Speed 11 mph (NNW)    
Max Wind Speed 20 mph    
Max Gust Speed 26 mph    
Visibility 6 miles    
Events Rain , Snow    
Averages and records for this station are not official NWS values.
T = Trace of Precipitation, MM = Missing Value Source: NWS Daily Summary

Daily Weather History Graph

Daily Weather History Graph

Search for Another Location

Airport:

Trip Planner

Search our weather history database for the weather conditions in past years. The results will help you decide how hot, cold, wet, or windy it might be!

Date:

Astronomy

Jan. 29, 2013 Rise Set
Actual Time 8:03 AM CST 5:24 PM CST
Civil Twilight 7:29 AM CST 5:58 PM CST
Nautical Twilight 6:51 AM CST 6:36 PM CST
Astronomical Twilight 6:14 AM CST 7:13 PM CST
Moon 8:41 PM CST (1/29) 8:44 AM CST (1/29)
Length of Visible Light 10h 28m
Length of Day
9h 20m
Waning Gibbous, 93% of the Moon is Illuminated
Jan 29
Waning Gibbous
Feb 3
Last Quarter
Feb 10
New
Feb 17
First Quarter
Feb 25
Full

Hourly Weather History & Observations

Time (CST) Temp. Windchill Dew Point Humidity Pressure Visibility Wind Dir Wind Speed Gust Speed Precip Events Conditions
12:15 AM 21.2 °F 11.7 °F 19.4 °F 93% 29.76 in 5.0 mi NW 8.1 mph - N/A   Overcast
12:35 AM 21.2 °F 13.6 °F 17.6 °F 86% 29.76 in 5.0 mi NW 5.8 mph - N/A   Overcast
12:55 AM 19.4 °F 11.5 °F 17.6 °F 93% 29.76 in 5.0 mi NW 5.8 mph - N/A   Scattered Clouds
1:15 AM 19.4 °F 12.8 °F 17.6 °F 93% 29.75 in 5.0 mi NNW 4.6 mph - N/A   Clear
1:35 AM 17.6 °F 9.3 °F 15.8 °F 93% 29.73 in 5.0 mi NW 5.8 mph - N/A   Partly Cloudy
1:55 AM 17.6 °F 10.7 °F 15.8 °F 93% 29.73 in 5.0 mi WNW 4.6 mph - N/A   Scattered Clouds
2:15 AM 17.6 °F 9.3 °F 15.8 °F 93% 29.72 in 6.0 mi NW 5.8 mph - N/A   Mostly Cloudy
2:35 AM 19.4 °F 10.4 °F 17.6 °F 93% 29.72 in 7.0 mi NNW 6.9 mph - N/A   Overcast
2:55 AM 19.4 °F 8.6 °F 17.6 °F 93% 29.72 in 8.0 mi NW 9.2 mph - N/A   Overcast
3:15 AM 19.4 °F 7.2 °F 17.6 °F 93% 29.72 in 10.0 mi NW 11.5 mph - N/A   Overcast
3:35 AM 19.4 °F 8.6 °F 17.6 °F 93% 29.72 in 9.0 mi NW 9.2 mph - N/A   Overcast
3:55 AM 21.2 °F 11.7 °F 17.6 °F 86% 29.72 in 9.0 mi NNW 8.1 mph - N/A   Overcast
4:15 AM 21.2 °F 10.1 °F 17.6 °F 86% 29.72 in 8.0 mi NNW 10.4 mph - N/A   Overcast
4:35 AM 21.2 °F 9.5 °F 19.4 °F 93% 29.72 in 8.0 mi NNW 11.5 mph 16.1 mph N/A   Overcast
4:55 AM 23.0 °F 12.4 °F 19.4 °F 86% 29.73 in 7.0 mi NNW 10.4 mph - N/A   Overcast
5:15 AM 21.2 °F 10.1 °F 19.4 °F 93% 29.72 in 7.0 mi NNW 10.4 mph - N/A   Overcast
5:35 AM 21.2 °F 10.1 °F 19.4 °F 93% 29.72 in 7.0 mi NNW 10.4 mph - N/A   Overcast
5:55 AM 21.2 °F 10.1 °F 19.4 °F 93% 29.73 in 6.0 mi NNW 10.4 mph - N/A   Overcast
6:15 AM 21.2 °F 10.9 °F 19.4 °F 93% 29.73 in 5.0 mi NNW 9.2 mph - N/A   Overcast
6:35 AM 21.2 °F 10.9 °F 19.4 °F 93% 29.73 in 5.0 mi NNW 9.2 mph - N/A   Overcast
6:55 AM 21.2 °F 10.1 °F 19.4 °F 93% 29.74 in 5.0 mi North 10.4 mph - N/A   Overcast
7:15 AM 19.4 °F 7.9 °F 19.4 °F 100% 29.75 in 4.0 mi NNW 10.4 mph - N/A   Overcast
7:35 AM 19.4 °F 7.9 °F 19.4 °F 100% 29.75 in 4.0 mi NNW 10.4 mph - N/A   Overcast
7:55 AM 19.4 °F 8.6 °F 19.4 °F 100% 29.75 in 4.0 mi NNW 9.2 mph - N/A   Overcast
8:15 AM 19.4 °F 8.6 °F 19.4 °F 100% 29.76 in 3.0 mi NNW 9.2 mph - N/A   Overcast
8:35 AM 19.4 °F 9.5 °F 19.4 °F 100% 29.77 in 3.0 mi NNW 8.1 mph - N/A   Overcast
8:55 AM 19.4 °F 7.9 °F 19.4 °F 100% 29.77 in 3.0 mi NNW 10.4 mph - N/A   Overcast
9:15 AM 19.4 °F 7.9 °F 17.6 °F 93% 29.78 in 3.0 mi NNW 10.4 mph - N/A Snow Light Snow
9:35 AM 19.4 °F 7.2 °F 17.6 °F 93% 29.78 in 2.5 mi NNW 11.5 mph - N/A Snow Light Snow
9:55 AM 19.4 °F 6.0 °F 17.6 °F 93% 29.79 in 2.5 mi NNW 13.8 mph - N/A Rain Light Freezing Rain
10:15 AM 19.4 °F 7.2 °F 17.6 °F 93% 29.80 in 2.0 mi NNW 11.5 mph - N/A Snow Light Snow
10:35 AM 19.4 °F 5.5 °F 17.6 °F 93% 29.81 in 2.0 mi NNW 15.0 mph - N/A Snow Light Snow
10:55 AM 19.4 °F 6.0 °F 15.8 °F 86% 29.81 in 2.0 mi NNW 13.8 mph 17.3 mph 0.01 in Snow Light Snow
11:15 AM 19.4 °F 6.0 °F 15.8 °F 86% 29.82 in 2.5 mi NNW 13.8 mph - N/A Snow Light Snow
11:35 AM 19.4 °F 5.5 °F 15.8 °F 86% 29.83 in 2.5 mi NNW 15.0 mph - N/A Snow Light Snow
11:55 AM 19.4 °F 6.0 °F 15.8 °F 86% 29.82 in 3.0 mi NNW 13.8 mph - 0.01 in Snow Light Snow
12:15 PM 19.4 °F 5.0 °F 15.8 °F 86% 29.83 in 3.0 mi NNW 16.1 mph 19.6 mph N/A Snow Light Snow
12:35 PM 17.6 °F 3.2 °F 15.8 °F 93% 29.83 in 5.0 mi NNW 15.0 mph 18.4 mph N/A Snow Light Snow
12:55 PM 17.6 °F 3.2 °F 14.0 °F 86% 29.83 in 5.0 mi North 15.0 mph - N/A Rain Light Freezing Rain
1:15 PM 17.6 °F 2.2 °F 14.0 °F 86% 29.83 in 4.0 mi NNW 17.3 mph 24.2 mph N/A Rain Light Freezing Rain
1:35 PM 17.6 °F 3.7 °F 14.0 °F 86% 29.84 in 5.0 mi North 13.8 mph - N/A   Overcast
1:55 PM 17.6 °F 4.3 °F 14.0 °F 86% 29.84 in 7.0 mi NNW 12.7 mph 18.4 mph N/A   Mostly Cloudy
2:15 PM 17.6 °F 2.7 °F 14.0 °F 86% 29.84 in 7.0 mi North 16.1 mph 19.6 mph N/A   Mostly Cloudy
2:35 PM 17.6 °F 3.7 °F 14.0 °F 86% 29.85 in 6.0 mi North 13.8 mph 18.4 mph N/A   Haze
2:55 PM 17.6 °F 3.7 °F 14.0 °F 86% 29.86 in 4.0 mi North 13.8 mph 18.4 mph N/A Snow Light Snow
3:15 PM 17.6 °F 3.7 °F 14.0 °F 86% 29.86 in 3.0 mi North 13.8 mph - N/A Snow Light Snow
3:35 PM 17.6 °F 2.7 °F 14.0 °F 86% 29.86 in 2.5 mi NNW 16.1 mph 23.0 mph N/A Rain Light Freezing Rain
3:55 PM 15.8 °F -0.2 °F 12.2 °F 86% 29.87 in 4.0 mi NNW 17.3 mph - N/A Rain Light Freezing Rain
4:15 PM 15.8 °F 1.4 °F 10.4 °F 79% 29.89 in 8.0 mi North 13.8 mph 23.0 mph N/A Rain Light Freezing Rain
4:35 PM 15.8 °F -0.2 °F 10.4 °F 79% 29.89 in 7.0 mi North 17.3 mph 21.9 mph N/A Rain Light Freezing Rain
4:55 PM 15.8 °F 0.3 °F 10.4 °F 79% 29.90 in 5.0 mi North 16.1 mph 23.0 mph N/A Rain Light Freezing Rain
5:15 PM 15.8 °F 0.9 °F 10.4 °F 79% 29.91 in 6.0 mi North 15.0 mph 19.6 mph N/A Rain Light Freezing Rain
5:35 PM 14.0 °F -2.0 °F 10.4 °F 86% 29.92 in 7.0 mi NNW 16.1 mph - N/A Snow Light Snow
5:55 PM 14.0 °F -1.4 °F 8.6 °F 79% 29.93 in 7.0 mi NNW 15.0 mph - N/A Rain Light Freezing Rain
6:15 PM 14.0 °F -1.4 °F 8.6 °F 79% 29.93 in 7.0 mi NNW 15.0 mph 21.9 mph N/A Rain Light Freezing Rain
6:35 PM 14.0 °F -2.5 °F 8.6 °F 79% 29.94 in 5.0 mi NNW 17.3 mph 24.2 mph N/A Rain Light Freezing Rain
6:55 PM 14.0 °F -2.5 °F 8.6 °F 79% 29.94 in 7.0 mi NNW 17.3 mph 21.9 mph N/A Rain Light Freezing Rain
7:15 PM 14.0 °F -2.0 °F 8.6 °F 79% 29.94 in 9.0 mi NNW 16.1 mph 20.7 mph N/A Rain Light Freezing Rain
7:35 PM 14.0 °F -2.0 °F 8.6 °F 79% 29.95 in 8.0 mi NNW 16.1 mph 21.9 mph N/A Rain Light Freezing Rain
7:55 PM 14.0 °F -2.0 °F 6.8 °F 73% 29.96 in 7.0 mi NNW 16.1 mph 21.9 mph N/A Rain Light Freezing Rain
8:15 PM 14.0 °F -2.0 °F 6.8 °F 73% 29.96 in 8.0 mi NNW 16.1 mph - N/A Rain Light Freezing Rain
8:35 PM 12.2 °F -4.8 °F 6.8 °F 79% 29.97 in 8.0 mi NNW 17.3 mph 26.5 mph N/A Rain Light Freezing Rain
8:55 PM 12.2 °F -4.8 °F 6.8 °F 79% 29.99 in 9.0 mi NNW 17.3 mph 24.2 mph N/A Rain Light Freezing Rain
9:15 PM 10.4 °F -6.0 °F 6.8 °F 85% 30.00 in 4.0 mi North 15.0 mph 21.9 mph N/A Snow Light Snow
9:35 PM 10.4 °F -7.2 °F 6.8 °F 85% 30.00 in 4.0 mi NNW 17.3 mph 25.3 mph 0.01 in Rain Light Freezing Rain
9:55 PM 10.4 °F -6.6 °F 5.0 °F 79% 30.01 in 6.0 mi North 16.1 mph 20.7 mph 0.01 in Rain Light Freezing Rain
10:15 PM 10.4 °F -6.6 °F 5.0 °F 79% 30.01 in 7.0 mi North 16.1 mph 19.6 mph N/A Rain Light Freezing Rain
10:35 PM 8.6 °F -8.9 °F 5.0 °F 85% 30.01 in 6.0 mi North 16.1 mph 19.6 mph N/A Rain Light Freezing Rain
10:55 PM 8.6 °F -10.0 °F 5.0 °F 85% 30.01 in 6.0 mi NNW 18.4 mph 25.3 mph N/A Rain Light Freezing Rain
11:15 PM 8.6 °F -10.5 °F 3.2 °F 79% 30.01 in 5.0 mi NNW 19.6 mph 25.3 mph N/A Rain Light Freezing Rain
11:35 PM 8.6 °F -9.5 °F 3.2 °F 79% 30.01 in 6.0 mi NNW 17.3 mph 24.2 mph N/A Rain Light Freezing Rain
11:55 PM 8.6 °F -8.3 °F 3.2 °F 79% 30.01 in 6.0 mi NNW 15.0 mph - N/A Rain Light Freezing Rain